Tracking 31027 objects as of 19-Jul-2025
HD Live streaming from Space Station
objects crossing your sky now

FENGYUN 1C DEB

Track FENGYUN 1C DEB now!
10-day predictions


NORAD ID: 31312
Int'l Code: 1999-025BPQ
Perigee: 855.9 km
Apogee: 941.6 km
Inclination: 98.8 °
Period: 102.8 minutes
Semi major axis: 7269 km
RCS: 0.0157 m2 (small)
Launch date: May 10, 1999
Source: People's Republic of China (PRC)
Launch site: Taiyaun Space Center, China (TSC)

Note: This is SATELLITE DEBRIS
Your satellite tracking list
SPACEBEENZ-7
Track 1 satellite(s)




NASA's NSSDC Master Catalog

Two Line Element Set (TLE):
1 31312U 99025BPQ 25192.24562492  .00000260  00000-0  20060-3 0  9997
2 31312  98.8302 182.8373 0058991 307.0029  68.6168 14.00627638929830
Source of the keplerian elements: AFSPC